ATLAS 5 CENTAUR DEB, 52969

Orbit data source: Space-Track

ATLAS 5 CENTAUR DEB, 52969 is space debris in HEO originally from a launch on Wed, 17 Oct 2018 UTC launched from the Air Force Eastern Test Range (AFETR). Debris objects in space refer to the collection of defunct objects orbiting the Earth. Examples of debris include non-operational satellites, rocket bodies, and fragments generated from explosions, collisions, or faulty payload assembly.

Loading next visibility...
Identifier
52969, 2018-079GT
Orbit
HEO
Country
Flag of USUS
Related business
Flag of USUnited Launch Alliance/Lockheed Martin (US)
Manufacturer
ULA Decatur
Mission
Spacecraft
Bus & Motor
Unknown
Mass
Unknown
Launch date (UTC)
2018-10-17 (8 years ago)
Launch vehicle
Unknown
Launch site
Air Force Eastern Test Range (AFETR)
Object type
Payload
Rocket body
Debris
Shape & HBR
Unknown shape, 1.1 m
Radar Cross Section
RCS unknown

Expand to show TLE details & history
Last TLE update: 2 months ago

TLE from 2 months ago
0 ATLAS 5 CENTAUR DEB
1 52969U 18079GT  26174.46557877 -.00000095  00000-0  00000-0 0  9990
2 52969  13.1909  26.0682 4559089 355.1191   1.7036  1.94552018 28894
Epoch: 2026-06-23T11:10Z
TLE epoch observation values (Epoch: 2026-06-23T11:10:26.005Z)
Latitude
0.00014°
Longitude
-53.18201°
Altitude
8,402.211 km
Speed
6.263 km/s
True Right ascension
01h 44m 15s
True Declination
0° 00' 00"
Sunlit
Object was in daylight at epoch
Visualization orbit readout
Latitude
Unknown
Longitude
Unknown
Altitude
Unknown
Speed
Unknown
Apparent Right ascension
Unknown
Apparent Declination
Unknown
Sunlit
N/A
Visualization observer readout
Local Sidereal Time
21:12:35
Azimuth
Unknown
Elevation
Unknown
Doppler factor
Unknown
Orbital elements
Apogee altitude
33,086.962 km
Perigee altitude
8,370.457 km
Semi-major axis
27,106.846 km
Eccentricity
0.45591
Inclination
13.1909°
RAAN
26.0682°
Arg. of periapsis
355.1191°
True anomaly
5.11759°
Mean anomaly
1.7036°
Eccentric anomaly
3.12979°
Mean motion
0.48632 °/min
Orbital period
740.25 mins
BSTAR
0
Loading maneuver chart data...
Computing Atmospheric mass density...

Documentation

Showing up to 5 results
|